Location: De Har
(53.3413°N, 6.6858°E)
Time: 17:23:44
(UTC+00:00)

Cosmos 1833 - Pass Details

Date: 22 April 2026
Orbit: 833 x 865 km, 70.9° (Epoch: 9 May)

Event Time Altitude Azimuth Distance (km) Brightness Sun altitude
Exits shadow 02:53:58 13° 209° (SSW) 2,258 5.9 -11.6°
Maximum altitude 02:59:05 87° 121° (ESE) 857 4.2 -11.1°
Drops below altitude 10° 03:04:47 10° 33° (NNE) 2,474 7.9 -10.4°
Sets 03:07:14 0° 33° (NNE) 3,408 8.9 -10.1°
